Regional Weather Roundup
Issued by NWS

Home | Current Version | Previous Version | Graphics & Text | Print | Product List | Glossary On
Versions: 1 2 3 4 5 6 7 8 9 10 11 12 13 14 15 16 17 18 19 20 21 22 23 24 25 26 27 28
000
ASUS45 KBOI 300610
RWRID

IDAHO REGIONAL WEATHER ROUNDUP
NATIONAL WEATHER SERVICE BOISE ID
1200 AM MDT THU MAR 30 2017

NOTE: "FAIR" INDICATES FEW OR NO CLOUDS BELOW 12000 FEET
WITH NO SIGNIFICANT WEATHER AND/OR OBSTRUCTIONS TO VISIBILITY

IDZ012-014-300700-
SOUTHWEST IDAHO


CITY           SKY/WX    TMP DP  RH WIND       PRES   REMARKS
BOISE          LGT RAIN  50  47  89 S6        29.93F
CALDWELL       CLOUDY    50  48  93 SE6       29.93F
MOUNTAIN HOME  LGT RAIN  52 N/A N/A NE6       29.93F
$$

IDZ016-017-300700-
SOUTHCENTRAL IDAHO


CITY           SKY/WX    TMP DP  RH WIND       PRES   REMARKS
BURLEY         CLOUDY    50  41  71 W9        29.92S
JEROME         LGT RAIN  47  45  93 N6        29.95F
TWIN FALLS     CLOUDY    46  43  89 SW7       29.95F
$$

IDZ019>023-300700-
SOUTHEAST IDAHO


CITY           SKY/WX    TMP DP  RH WIND       PRES   REMARKS
IDAHO FALLS    CLOUDY    49  37  63 S8        29.94F
POCATELLO      CLOUDY    50  36  58 S20G29    29.94F
REXBURG        CLOUDY    44  41  89 S3        29.94F
$$

IDZ006-010-011-018-031-032-300700-
CENTRAL IDAHO MOUNTAINS


CITY           SKY/WX    TMP DP  RH WIND       PRES   REMARKS
MCCALL         LGT RAIN  36  33  89 N3        29.90F
HAILEY         RAIN      39  39 100 CALM      29.97F
STANLEY          N/A     36  35  96 SE8       29.92F WCI  30
SALMON         CLOUDY    43  41  93 CALM      29.88F
CHALLIS        LGT RAIN  43  41  93 N5        29.88F
$$

IDZ002-004-006-007-026-300700-
NORTHERN IDAHO


CITY           SKY/WX    TMP DP  RH WIND       PRES   REMARKS
LEWISTON       CLOUDY    49  46  90 CALM      29.87F
LOWELL           N/A     45  43  93 N3        29.92F
COEUR D`ALENE  CLOUDY    48  42  80 SW15      29.81F
MULLAN PASS    LGT RAIN  33  33 100 SW10G20   29.81F WCI  25
$$




USA.gov is the U.S. government's official web portal to all federal, state and local government web resources and services.